UTC  calendar date,Angular Size (deg),Planetographic Subspacecraft Longitude (deg),Planetographic Subspacecraft Latitude (deg),Sub-Point Radius (km),Observer Distance (km),Phase Angle (deg),Planetographic solar Longitude (deg),Planetographic solar Latitude (deg)
2016-10-19 13:10:54.000000 UTC,16.55200438,346.36916142,40.86092681,69694.43378338,427107.44604453,95.92976157,250.53568612,-2.31439157
2016-10-19 13:20:54.000000 UTC,16.96852351,352.41420118,41.49624736,69644.93947772,415051.83813286,95.90660816,256.58055034,-2.31441071
2016-10-19 13:30:54.000000 UTC,17.4116294,358.45921407,42.16427151,69592.55706195,402864.41336409,95.88144894,262.62541456,-2.31442985
2016-10-19 13:40:54.000000 UTC,17.88408381,4.50419675,42.8679789,69537.02711138,390539.97145404,95.85404933,268.67027878,-2.31444899
2016-10-19 13:50:54.000000 UTC,18.38905228,10.54914527,43.61074293,69478.05952014,378072.96730903,95.82413814,274.715143,-2.31446813
2016-10-19 14:00:54.000000 UTC,18.9301813,16.59405492,44.3963998,69415.32924023,365457.48188033,95.79140033,280.76000722,-2.31448726
2016-10-19 14:10:54.000000 UTC,19.51169393,22.63892004,45.22933274,69348.47143316,352687.19081174,95.75546799,286.80487145,-2.3145064
2016-10-19 14:20:54.000000 UTC,20.13850923,28.68373377,46.11457558,69277.0760014,339755.33104431,95.71590903,292.84973567,-2.31452554
2016-10-19 14:30:54.000000 UTC,20.81639264,34.72848766,47.05794109,69200.68150689,326654.66578692,95.67221292,298.89459989,-2.31454467
2016-10-19 14:40:54.000000 UTC,21.55214714,40.77317125,48.06618123,69118.76856246,313377.44862848,95.62377255,304.93946412,-2.31456381
2016-10-19 14:50:54.000000 UTC,22.35385864,46.81777134,49.14718915,69030.75292735,299915.388181,95.56986083,310.98432834,-2.31458295
2016-10-19 15:00:54.000000 UTC,23.23121428,52.86227105,50.310256,68935.9787999,286259.61555131,95.50960044,317.02919257,-2.31460208
2016-10-19 15:10:54.000000 UTC,24.19592011,58.9066484,51.56640112,68833.71326701,272400.65846331,95.44192414,323.07405679,-2.31462122
2016-10-19 15:20:54.000000 UTC,25.2622561,64.95087423,52.92880096,68723.14369521,258328.42821465,95.36552202,329.11892102,-2.31464036
2016-10-19 15:30:54.000000 UTC,26.44782354,70.99490888,54.4133532,68603.3813129,244032.22950411,95.27877089,335.16378525,-2.31465949
2016-10-19 15:40:54.000000 UTC,27.77456661,77.03869695,56.03942836,68473.47683735,229500.80937234,95.17963814,341.20864947,-2.31467863
2016-10-19 15:50:54.000000 UTC,29.27019094,83.08215852,57.83088578,68332.45868678,214722.47182723,95.0655492,347.2535137,-2.31469776
2016-10-19 16:00:54.000000 UTC,30.97016834,89.12517364,59.81746862,68179.41282504,199685.3020205,94.93320209,353.29837793,-2.31471689
2016-10-19 16:10:54.000000 UTC,32.92062371,95.16755335,62.03675298,68013.63893457,184377.57352093,94.77830367,359.34324216,-2.31473603
2016-10-19 16:20:54.000000 UTC,35.18257823,101.20898105,64.5369242,67834.94676504,168788.46426927,94.59518798,5.38810639,-2.31475516
2016-10-19 16:30:54.000000 UTC,37.83832313,107.24888151,67.38081771,67644.21146583,152909.30084192,94.37625424,11.43297061,-2.3147743
2016-10-19 16:40:54.000000 UTC,41.00121326,113.28608596,70.65194512,67444.41115884,136735.72601216,94.11112329,17.47783484,-2.31479343
2016-10-19 16:50:54.000000 UTC,44.83105475,119.31779307,74.46373339,67242.56824807,120271.5247973,93.78534833,23.52269907,-2.31481256
2016-10-19 17:00:54.000000 UTC,49.55874755,125.33516041,78.97414835,67053.38376218,103535.53503263,93.37841064,29.5675633,-2.3148317
2016-10-19 17:10:54.000000 UTC,55.52609516,131.28776486,84.40970584,66905.98588939,86574.55003891,92.86056925,35.61242753,-2.31485083
2016-10-19 17:20:54.000000 UTC,63.24879549,318.4642133,88.89317614,66856.04751873,69488.50097465,92.18793378,41.65729176,-2.31486996
2016-10-19 17:30:54.000000 UTC,73.50521712,323.67311811,80.41553166,67005.36300289,52482.43164051,91.29517759,47.70215599,-2.3148891
2016-10-19 17:40:54.000000 UTC,87.40097228,329.65887394,69.31927833,67523.06459915,35980.71140833,90.08743957,53.74702022,-2.31490823
2016-10-19 17:50:54.000000 UTC,106.07395213,335.6814379,54.22336347,68618.65444481,20889.15343678,88.44786339,59.79188445,-2.31492736
2016-10-19 18:00:54.000000 UTC,128.43215914,341.7137723,33.11280268,70264.78098394,9146.23553563,86.3567847,65.83674868,-2.31494649
2016-10-19 18:10:54.000000 UTC,141.88787219,347.74953297,5.31617026,71458.26921755,4178.91189866,84.38268878,71.88161291,-2.31496562
2016-10-19 18:20:54.000000 UTC,128.42082098,353.78601804,-23.08956727,70873.91763213,8534.62975339,83.70829799,77.92647714,-2.31498475
2016-10-19 18:30:54.000000 UTC,106.08761429,359.82126319,-45.01714651,69365.53479025,20135.50382689,84.23336718,83.97134137,-2.31500389
2016-10-19 18:40:54.000000 UTC,87.42948551,5.85274409,-60.51828622,68126.41709034,35366.00212127,85.11902979,90.0162056,-2.31502302
2016-10-19 18:50:54.000000 UTC,73.53701824,11.87502322,-71.74345574,67382.99673787,52078.33431821,85.98679266,96.06106983,-2.31504215
2016-10-19 19:00:54.000000 UTC,63.27881384,17.86946347,-80.2256816,67011.32824804,69284.85843434,86.74611535,102.10593406,-2.31506128
2016-10-19 19:10:54.000000 UTC,55.55281689,23.68436702,-86.87908113,66870.25745725,86539.82837835,87.39224143,108.15079829,-2.31508041
2016-10-19 19:20:54.000000 UTC,49.58205823,210.53357853,-87.74310892,66862.50799161,103637.31157864,87.94047286,114.19566252,-2.31509954
2016-10-19 19:30:54.000000 UTC,44.85129718,216.26870331,-83.29114769,66928.7089912,120482.10345326,88.40824127,120.24052674,-2.31511867
2016-10-19 19:40:54.000000 UTC,41.01882975,222.25729187,-79.5330457,67034.02036578,137032.85714416,88.81070889,126.28539097,-2.3151378
2016-10-19 19:50:54.000000 UTC,37.85373226,228.27861632,-76.30932566,67158.26879114,153275.49172681,89.16012585,132.3302552,-2.31515693
2016-10-19 20:00:54.000000 UTC,35.19614012,234.31060721,-73.50655001,67289.85135462,169210.0336952,89.46616507,138.37511943,-2.31517605
2016-10-19 20:10:54.000000 UTC,32.93263699,240.34740493,-71.04177339,67422.15879779,184843.79747647,89.73643169,144.41998366,-2.31519518
2016-10-19 20:20:54.000000 UTC,30.98087726,246.38678382,-68.85289193,67551.50345848,200187.72637189,89.97692642,150.46484789,-2.31521431
2016-10-19 20:30:54.000000 UTC,29.2797946,252.42771211,-66.89244491,67675.91577609,215254.38326905,90.19241736,156.50971212,-2.31523344
2016-10-19 20:40:54.000000 UTC,27.78322763,258.46964543,-65.12350892,67794.43926436,230056.83503271,90.3867254,162.55457634,-2.31525257
2016-10-19 20:50:54.000000 UTC,26.45567533,264.51226908,-63.51690375,67906.71325,244608.03524703,90.56293987,168.59944057,-2.3152717
2016-10-19 21:00:54.000000 UTC,25.26940875,270.5553882,-62.04924536,68012.72354072,258920.49090824,90.72358096,174.6443048,-2.31529082
2016-10-19 21:10:54.000000 UTC,24.20246507,276.59887561,-60.70156041,68112.65231423,273006.09318804,90.87072233,180.68916903,-2.31530995
2016-10-19 21:20:54.000000 UTC,23.23722799,282.64264464,-59.45828165,68206.7873598,286876.0436329,91.00608437,186.73403325,-2.31532908
2016-10-19 21:30:54.000000 UTC,22.35940542,288.68663416,-58.30650731,68295.4672226,300540.83562903,91.13110548,192.77889748,-2.3153482
2016-10-19 21:40:54.000000 UTC,21.55728147,294.73079975,-57.23544664,68379.04827461,314010.26736567,91.24699716,198.8237617,-2.31536733
2016-10-19 21:50:54.000000 UTC,20.82116094,300.77510836,-56.23599919,68457.88527233,327293.47206249,91.35478674,204.86862593,-2.31538646
2016-10-19 22:00:54.000000 UTC,20.14295129,306.81953484,-55.30043146,68532.32024565,340398.95691824,91.45535106,210.91349015,-2.31540558
2016-10-19 22:10:54.000000 UTC,19.51584403,312.86405972,-54.42212559,68602.67653579,353334.64564771,91.54944298,216.95835438,-2.31542471
2016-10-19 22:20:54.000000 UTC,18.93406912,318.90866767,-53.59538194,68669.256002,366107.92156432,91.63771259,223.0032186,-2.31544384
2016-10-19 22:30:54.000000 UTC,18.39270369,324.95334645,-52.81526243,68732.33815659,378725.66947641,91.72072416,229.04808283,-2.31546296
2016-10-19 22:40:54.000000 UTC,17.88752141,330.99808615,-52.07746528,68792.18044814,391194.31542001,91.79896994,235.09294705,-2.31548209
2016-10-19 22:50:54.000000 UTC,17.41487306,337.04287868,-51.37822382,68849.0192019,403519.86377422,91.87288131,241.13781127,-2.31550121
2016-10-19 23:00:54.000000 UTC,16.97159075,343.08771735,-50.7142242,68903.07090894,415707.93155448,91.94283799,247.18267549,-2.31552034
2016-10-19 23:10:54.000000 UTC,16.55491073,349.13259657,-50.08253804,68954.53367223,427763.77991476,92.00917558,253.22753971,-2.31553946
Kernels Used,,,,,,,,
pds/data/jno-j_e_ss-spice-6-v1.0/jnosp_1000/extras/mk/juno_2016_v03.tm,,,,,,,,
